Logan, UT

1:53 AM MDT on July 23, 2017 (GMT -0600)
Logan-Cache

Weather History for KLGU - October, 2012

Change the Weather History Date:

Sunday, October 7, 2012

  Actual Average Record
Temperature  
Mean Temperature 40 °F -  
Max Temperature 61 °F 67 °F 83 °F (1975)
Min Temperature 21 °F 35 °F 21 °F (2012)
Degree Days  
Heating Degree Days 24    
Moisture  
Dew Point 13 °F    
Average Humidity 39    
Maximum Humidity 72    
Minimum Humidity 15    
Precipitation  
Precipitation 0.00 in - - ()
Sea Level Pressure  
Sea Level Pressure 30.19 in    
Wind  
Wind Speed 1 mph (NNE)    
Max Wind Speed 6 mph    
Max Gust Speed -    
Visibility 10 miles    
Events      
Averages and records for this station are not official NWS values.
T = Trace of Precipitation, MM = Missing Value Source: NWS Daily Summary

Daily Weather History Graph

Daily Weather History Graph

Search for Another Location

Airport or City:

Trip Planner

Search our weather history database for the weather conditions in past years. The results will help you decide how hot, cold, wet, or windy it might be!

Date:

Astronomy

Oct. 07, 2012 Rise Set
Actual Time 7:31 AM MDT 6:58 PM MDT
Civil Twilight 7:03 AM MDT 7:25 PM MDT
Nautical Twilight 6:31 AM MDT 7:57 PM MDT
Astronomical Twilight 5:58 AM MDT 8:30 PM MDT
Moon No Moon Rise 2:14 PM MDT (10/7)
Length of Visible Light 12h 22m
Length of Day
11h 26m
Waning Gibbous, 55% of the Moon is Illuminated
Oct 7
Waning Gibbous
Oct 8
Last Quarter
Oct 15
New
Oct 21
First Quarter
Oct 29
Full

Hourly Weather History & Observations

Time (MDT) Temp. Windchill Dew Point Humidity Pressure Visibility Wind Dir Wind Speed Gust Speed Precip Events Conditions
1:51 AM 30.9 °F - 15.1 °F 52% 30.20 in 10.0 mi Calm Calm - N/A   Clear
2:51 AM 27.0 °F - 12.0 °F 53% 30.21 in 10.0 mi Calm Calm - N/A   Clear
3:51 AM 30.0 °F - 12.0 °F 47% 30.19 in 10.0 mi Calm Calm - N/A   Clear
4:51 AM 24.1 °F - 10.9 °F 57% 30.21 in 10.0 mi Calm Calm - N/A   Clear
5:51 AM 24.1 °F - 12.0 °F 60% 30.22 in 10.0 mi Calm Calm - N/A   Clear
6:51 AM 21.9 °F - 10.9 °F 63% 30.24 in 10.0 mi Calm Calm - N/A   Clear
7:51 AM 21.9 °F - 14.0 °F 72% 30.27 in 10.0 mi Calm Calm - N/A   Clear
8:51 AM 28.9 °F - 14.0 °F 54% 30.29 in 10.0 mi Calm Calm - N/A   Clear
9:51 AM 35.1 °F - 16.0 °F 46% 30.27 in 10.0 mi Calm Calm - N/A   Clear
10:51 AM 42.1 °F - 8.1 °F 25% 30.25 in 10.0 mi Calm Calm - N/A   Clear
11:51 AM 48.0 °F - 6.1 °F 18% 30.24 in 10.0 mi Calm Calm - N/A   Clear
12:51 PM 52.0 °F - 8.1 °F 17% 30.22 in 10.0 mi North 4.6 mph - N/A   Clear
1:51 PM 57.0 °F - 9.0 °F 15% 30.17 in 10.0 mi NE 4.6 mph - N/A   Clear
2:51 PM 57.9 °F - 12.0 °F 16% 30.14 in 10.0 mi Variable 4.6 mph - N/A   Clear
3:51 PM 60.1 °F - 12.0 °F 15% 30.12 in 10.0 mi NNW 5.8 mph - N/A   Clear
4:51 PM 60.1 °F - 12.0 °F 15% 30.11 in 10.0 mi Calm Calm - N/A   Clear
6:51 PM 57.9 °F - 12.0 °F 16% 30.10 in 10.0 mi Calm Calm - N/A   Clear
7:51 PM 46.9 °F - 18.0 °F 32% 30.14 in 10.0 mi Calm Calm - N/A   Clear
8:51 PM 41.0 °F - 17.1 °F 38% 30.14 in 10.0 mi Calm Calm - N/A   Clear
9:51 PM 39.0 °F - 19.0 °F 45% 30.14 in 10.0 mi Calm Calm - N/A   Clear
10:51 PM 37.9 °F 35.5 °F 18.0 °F 45% 30.12 in 10.0 mi SSW 3.5 mph - N/A   Clear
11:51 PM 35.1 °F 31.0 °F 19.0 °F 52% 30.12 in 10.0 mi East 4.6 mph - N/A   Clear